Simultaneous Nadir Overpasses (SNOs) Predictions

Prediction of SNOs between AQUA and NPP Satellite Orbit:

Table of predicted SNOs for the next 14.0 days since TLE Epoch: 5/20/2016
Index Date (AQUA) Time (AQUA) Lat,Lon (AQUA) SZA (AQUA ) Date (NPP) Time (NPP) Lat,Lon (NPP) SZA (NPP ) Distance(km) Time Diff (sec)
1 05/21/2016 13:16:45 73.59,-146.17 79.85 05/21/2016 13:15:47 73.59,-146.25 79.93 2.65 58
2 05/21/2016 14:05:36 -75.45, 26.02 102.23 05/21/2016 14:05:54 -75.46, 26.07 102.26 1.56 18
3 05/24/2016 05:32:55 74.29, -28.70 78.60 05/24/2016 05:32:28 74.28, -28.78 78.65 2.64 27
4 05/24/2016 06:21:49 -75.97, 143.44 103.31 05/24/2016 06:22:38 -75.98, 143.51 103.37 2.15 49
5 05/26/2016 21:00:11 -73.35, -82.52 100.80 05/26/2016 20:58:58 -73.35, -82.57 100.72 1.63 73
6 05/26/2016 21:49:05 74.97, 88.87 77.41 05/26/2016 21:49:09 74.97, 88.83 77.41 1.41 4
7 05/26/2016 22:33:15 -79.62, -5.92 120.54 05/26/2016 22:34:28 -78.97, -8.64 120.87 91.65 73
8 05/29/2016 13:16:15 -74.29, 35.44 102.22 05/29/2016 13:15:33 -74.29, 35.46 102.19 0.39 42
9 05/29/2016 14:05:13 75.67,-153.29 76.21 05/29/2016 14:05:48 75.68,-153.26 76.17 1.06 35
10 06/01/2016 05:32:31 -74.64, 152.19 102.96 06/01/2016 05:32:21 -74.63, 152.13 102.94 2.01 10




NCC Satellite Simultaneous Nadir Overpasses (SNOs) Prediction Service
